Regional Weather Roundup
Issued by NWS

Home | Current Version | Previous Version | Text Only | Print | Product List | Glossary Off
Versions: 1 2 3 4 5 6 7 8 9 10 11 12 13 14 15 16 17 18 19 20 21 22 23 24 25 26 27 28 29 30 31 32 33 34 35 36 37 38 39 40 41 42 43 44 45 46 47 48 49 50

000
ASUS43 KBIS 170502
RWRND

NORTH DAKOTA REGIONAL WEATHER ROUNDUP
NATIONAL WEATHER SERVICE BISMARCK ND
1100 PM CST SAT DEC 16 2017

NOTE: "FAIR" INDICATES FEW OR NO CLOUDS BELOW 12,000 FEET WITH NO
SIGNIFICANT WEATHER AND/OR OBSTRUCTIONS TO VISIBILITY.


NDZ001>003-009>011-017-170600-
NORTHWEST NORTH DAKOTA

CITY           SKY/WX    TMP DP  RH WIND       PRES   REMARKS
WILLISTON      CLEAR     22  17  81 SW5       30.04S WCI  16
MINOT          CLEAR     26  19  74 SW8       30.00S WCI  18
MINOT AFB      CLEAR     22  17  83 W7        29.99S WCI  13
$$

NDZ018>021-031>035-040>046-170600-
SOUTHWEST NORTH DAKOTA

CITY           SKY/WX    TMP DP  RH WIND       PRES   REMARKS
BISMARCK       CLOUDY    27  25  92 SW6       30.07S
DICKINSON      CLOUDY    25  21  85 W6        30.03R WCI  18
GARRISON         N/A     27  21  78 W10       30.03R WCI  17
HETTINGER ARPT MOCLDY    21  17  84 W3        30.08R
$$

NDZ004>008-012>016-024-026-027-054-170600-
NORTHEAST NORTH DAKOTA

CITY           SKY/WX    TMP DP  RH WIND       PRES   REMARKS
GRAND FORKS    CLOUDY    14  12  92 S7        30.04R WCI   4
GRND FRKS AFB  CLOUDY    18  16  90 SW7       30.03R WCI   9
DEVILS LAKE    CLOUDY    24  21  88 SW9       30.02R WCI  14
$$

NDZ022-023-025-028>030-036>039-047>053-170600-
SOUTHEAST NORTH DAKOTA

CITY           SKY/WX    TMP DP  RH WIND       PRES   REMARKS
FARGO          PTCLDY    27  25  92 S8        30.08R WCI  19
JAMESTOWN      PTCLDY    30  28  92 SW5       30.05R
$$





USA.gov is the U.S. government's official web portal to all federal, state and local government web resources and services.